FW2979 Weather Reports


time (UTC)temp
C
wind
direction
speed
KPH
gust
KPH
rain 1hr
cm
rain 24hr
cm
rain mn
cm
humidity
%
barometer
mb
20260505140339 11 229 8.0 11.3 0.00 0.00 0.00 64 813.7
20260505140226 11 259 9.7 19.3 0.00 0.00 0.00 69 813.7
20260505140116 11 274 12.9 19.3 0.00 0.00 0.00 68 813.7
20260505130256 9 205 6.4 11.3 0.00 0.00 0.00 71 814.1
20260505130146 9 257 4.8 12.9 0.00 0.00 0.00 71 814.2
20260505124856 11 239 6.4 19.3 0.00 0.00 0.00 62 813.9
20260505124746 11 294 16.1 25.7 0.00 0.00 0.00 63 813.9
20260505124636 11 320 16.1 22.5 0.00 0.00 0.00 61 813.9
20260505124527 11 313 14.5 20.9 0.00 0.00 0.00 62 814.2
20260505124417 11 330 11.3 16.1 0.00 0.00 0.00 59 814.2
20260505124307 11 346 9.7 19.3 0.00 0.00 0.00 54 814.2
20260505124156 11 350 6.4 12.9 0.00 0.00 0.00 48 814.2
20260505124046 11 18 6.4 12.9 0.00 0.00 0.00 42 814.2
20260505123828 11 80 9.7 16.1 0.00 0.00 0.00 45 814.2
20260505123717 11 28 8.0 12.9 0.00 0.00 0.00 45 814.2
20260505123606 11 22 9.7 19.3 0.00 0.00 0.00 40 814.2
20260505123456 11 40 16.1 20.9 0.00 0.00 0.00 42 814.2
20260505123347 10 47 14.5 20.9 0.00 0.00 0.00 45 814.2
20260505123236 10 17 16.1 24.1 0.00 0.00 0.00 43 814.2
20260505123126 10 8 19.3 30.6 0.00 0.00 0.00 43 814.1
20260505123016 11 18 16.1 29.0 0.00 0.00 0.00 43 814.1
20260505122906 11 32 17.7 30.6 0.00 0.00 0.00 46 813.9
20260505122756 10 14 12.9 17.7 0.00 0.00 0.00 44 814.1
20260505122538 10 354 14.5 25.7 0.00 0.00 0.00 45 814.1
20260505122426 11 347 24.1 35.4 0.00 0.00 0.00 44 813.8
20260505122318 11 26 19.3 33.8 0.00 0.00 0.00 43 814.1
20260505122056 11 51 14.5 27.4 0.00 0.00 0.00 42 814.1
20260505121836 11 21 9.7 19.3 0.00 0.00 0.00 42 814.1
20260505121616 10 10 16.1 27.4 0.00 0.00 0.00 42 813.9
20260505121356 10 64 14.5 20.9 0.00 0.00 0.00 44 814.2
20260505121246 10 42 14.5 25.7 0.00 0.00 0.00 46 814.2
20260505121144 10 49 24.1 29.0 0.00 0.00 0.00 44 813.9
20260505121027 10 48 24.1 32.2 0.00 0.00 0.00 44 813.8
20260505120806 10 25 24.1 38.6 0.00 0.00 0.00 44 813.9
20260505120546 10 11 6.4 12.9 0.00 0.00 0.00 45 814.2
20260505120437 10 20 16.1 27.4 0.00 0.00 0.00 45 814.2
20260505120326 10 39 27.4 33.8 0.00 0.00 0.00 46 814.1
20260505120217 10 46 27.4 32.2 0.00 0.00 0.00 46 813.9
20260505115956 10 44 19.3 27.4 0.00 0.00 0.00 46 814.2
20260505115847 10 43 16.1 22.5 0.00 0.00 0.00 46 814.2
20260505115741 10 34 16.1 25.7 0.00 0.00 0.00 47 814.2
20260505115407 10 34 16.1 27.4 0.00 0.00 0.00 45 814.2
20260505115256 10 43 16.1 20.9 0.00 0.00 0.00 44 814.2
20260505115146 10 66 19.3 30.6 0.00 0.00 0.00 44 814.2
20260505114926 10 85 25.7 35.4 0.00 0.00 0.00 46 814.1
20260505114707 10 51 29.0 35.4 0.00 0.00 0.00 45 814.1
20260505114556 10 45 33.8 41.8 0.00 0.00 0.00 44 814.1
20260505114447 10 8 17.7 32.2 0.00 0.00 0.00 46 814.2
20260505114336 10 2 22.5 33.8 0.00 0.00 0.00 44 814.2
20260505114226 10 30 24.1 29.0 0.00 0.00 0.00 44 814.2
20260505114116 10 37 16.1 33.8 0.00 0.00 0.00 43 814.2
20260505113856 10 6 19.3 27.4 0.00 0.00 0.00 45 814.2
20260505113746 10 32 17.7 24.1 0.00 0.00 0.00 45 814.2
20260505113636 10 59 17.7 25.7 0.00 0.00 0.00 46 814.2
20260505113527 10 70 14.5 27.4 0.00 0.00 0.00 43 814.3
20260505113416 10 57 20.9 25.7 0.00 0.00 0.00 46 814.2
20260505113307 10 49 24.1 33.8 0.00 0.00 0.00 45 814.2
20260505113156 10 54 24.1 32.2 0.00 0.00 0.00 46 814.2
20260505113047 10 41 22.5 29.0 0.00 0.00 0.00 46 814.2
20260505112936 10 41 25.7 41.8 0.00 0.00 0.00 46 814.2
20260505112827 10 55 25.7 33.8 0.00 0.00 0.00 46 814.2
20260505112716 10 51 27.4 38.6 0.00 0.00 0.00 48 814.2
20260505112606 10 40 19.3 27.4 0.00 0.00 0.00 47 814.2
20260505112348 10 36 20.9 33.8 0.00 0.00 0.00 47 814.2
20260505112237 10 24 25.7 37.0 0.00 0.00 0.00 46 814.1
20260505112126 10 17 16.1 29.0 0.00 0.00 0.00 46 814.2
20260505112017 10 16 19.3 35.4 0.00 0.00 0.00 46 814.2
20260505111906 10 42 22.5 30.6 0.00 0.00 0.00 47 814.2
20260505111756 10 32 19.3 33.8 0.00 0.00 0.00 46 814.2
20260505111647 10 51 11.3 17.7 0.00 0.00 0.00 46 814.2
20260505111427 10 54 9.7 20.9 0.00 0.00 0.00 42 814.2
20260505111318 10 50 16.1 27.4 0.00 0.00 0.00 44 814.2
20260505111207 10 28 24.1 33.8 0.00 0.00 0.00 44 814.2
20260505111056 10 36 25.7 33.8 0.00 0.00 0.00 44 814.2
20260505110946 10 23 22.5 32.2 0.00 0.00 0.00 44 814.2
20260505110836 10 4 24.1 38.6 0.00 0.00 0.00 44 814.2
20260505110726 10 19 19.3 32.2 0.00 0.00 0.00 44 814.2
20260505110616 10 51 27.4 41.8 0.00 0.00 0.00 43 814.2
20260505110356 10 52 25.7 35.4 0.00 0.00 0.00 44 814.2
20260505110246 10 55 22.5 33.8 0.00 0.00 0.00 45 814.2
20260505110137 10 20 22.5 32.2 0.00 0.00 0.00 46 814.2
20260505102157 9 53 9.7 16.1 0.00 0.00 0.00 48 814.6
20260505102046 10 48 16.1 25.7 0.00 0.00 0.00 48 814.3
20260505101936 10 68 22.5 33.8 0.00 0.00 0.00 48 814.3
20260505101826 9 81 12.9 19.3 0.00 0.00 0.00 52 814.6
20260505101717 9 16 8.0 19.3 0.00 0.00 0.00 48 814.6
20260505101606 9 336 12.9 25.7 0.00 0.00 0.00 48 814.3
20260505101456 9 20 11.3 22.5 0.00 0.00 0.00 48 814.6
20260505101346 9 62 20.9 25.7 0.00 0.00 0.00 46 814.5
20260505101241 9 49 30.6 43.5 0.00 0.00 0.00 45 814.3
20260505101126 9 58 25.7 37.0 0.00 0.00 0.00 46 814.3
20260505101016 9 38 19.3 33.8 0.00 0.00 0.00 47 814.6
20260505100906 9 40 24.1 35.4 0.00 0.00 0.00 47 814.3
20260505100756 9 46 29.0 40.2 0.00 0.00 0.00 47 814.3
20260505100536 9 40 14.5 32.2 0.00 0.00 0.00 48 814.2
20260505100426 8 35 16.1 25.7 0.00 0.00 0.00 48 814.5
20260505100317 8 50 27.4 37.0 0.00 0.00 0.00 47 814.3
20260505100207 8 58 24.1 38.6 0.00 0.00 0.00 47 814.5
20260505100056 8 69 22.5 27.4 0.00 0.00 0.00 47 814.3
20260505095946 9 55 33.8 43.5 0.00 0.00 0.00 47 814.3
20260505095837 9 67 29.0 37.0 0.00 0.00 0.00 45 814.2
20260505095616 8 50 25.7 35.4 0.00 0.00 0.00 44 814.6
20260505095506 9 57 30.6 38.6 0.00 0.00 0.00 45 814.6
20260505095356 9 65 30.6 38.6 0.00 0.00 0.00 45 814.3
20260505095246 8 64 27.4 37.0 0.00 0.00 0.00 45 814.6
20260505095136 8 63 29.0 35.4 0.00 0.00 0.00 44 814.5
20260505095026 9 55 33.8 48.3 0.00 0.00 0.00 45 814.2
20260505094806 9 61 20.9 29.0 0.00 0.00 0.00 48 814.6
20260505094656 9 66 24.1 33.8 0.00 0.00 0.00 47 814.6
20260505094547 9 62 25.7 37.0 0.00 0.00 0.00 46 814.6
20260505094436 9 61 29.0 48.3 0.00 0.00 0.00 46 814.3
20260505094326 9 58 24.1 38.6 0.00 0.00 0.00 46 814.5
20260505094216 9 61 25.7 35.4 0.00 0.00 0.00 46 814.6
20260505094106 9 54 35.4 45.1 0.00 0.00 0.00 44 814.3
20260505093956 9 43 22.5 38.6 0.00 0.00 0.00 48 814.3
20260505093847 9 43 29.0 40.2 0.00 0.00 0.00 45 814.5
20260505093406 9 55 33.8 41.8 0.00 0.00 0.00 44 814.3
20260505093300 9 65 27.4 37.0 0.00 0.00 0.00 46 814.6
20260505093146 9 74 29.0 48.3 0.00 0.00 0.00 46 814.5
20260505093036 9 56 22.5 30.6 0.00 0.00 0.00 48 814.6
20260505092926 9 37 14.5 27.4 0.00 0.00 0.00 51 814.6
20260505092707 9 63 19.3 35.4 0.00 0.00 0.00 51 814.6
20260505092556 9 42 11.3 17.7 0.00 0.00 0.00 53 814.6
20260505092446 8 73 12.9 24.1 0.00 0.00 0.00 53 814.6
20260505092336 8 69 16.1 24.1 0.00 0.00 0.00 51 814.6
20260505092226 8 36 19.3 27.4 0.00 0.00 0.00 51 814.6
20260505092116 8 53 24.1 30.6 0.00 0.00 0.00 52 814.3
20260505092006 8 50 29.0 40.2 0.00 0.00 0.00 52 814.3
20260505091856 8 55 16.1 32.2 0.00 0.00 0.00 51 814.6
20260505091636 8 36 32.2 40.2 0.00 0.00 0.00 51 814.3
20260505091526 8 33 33.8 45.1 0.00 0.00 0.00 50 814.3
20260505091416 8 23 19.3 37.0 0.00 0.00 0.00 51 814.6
20260505091306 8 30 19.3 25.7 0.00 0.00 0.00 49 814.6
20260505091156 8 33 30.6 45.1 0.00 0.00 0.00 48 814.6
20260505091046 8 42 22.5 40.2 0.00 0.00 0.00 51 814.6
20260505090717 8 80 19.3 25.7 0.00 0.00 0.00 50 814.6
20260505090606 8 61 27.4 37.0 0.00 0.00 0.00 52 814.3
20260505090456 8 39 22.5 38.6 0.00 0.00 0.00 52 814.6
20260505090346 8 11 16.1 22.5 0.00 0.00 0.00 52 814.6
20260505090236 8 31 19.3 25.7 0.00 0.00 0.00 52 814.6
20260505090016 8 67 24.1 37.0 0.00 0.00 0.00 50 814.6
20260505085906 8 49 32.2 40.2 0.00 0.00 0.00 52 814.3
20260505085426 8 53 29.0 41.8 0.00 0.00 0.00 53 814.6
20260505085316 8 54 30.6 38.6 0.00 0.00 0.00 54 814.6
20260505085208 8 49 19.3 32.2 0.00 0.00 0.00 53 814.6
20260505085056 8 41 22.5 32.2 0.00 0.00 0.00 51 814.6
20260505084946 8 50 32.2 41.8 0.00 0.00 0.00 51 814.6
20260505084837 8 41 32.2 41.8 0.00 0.00 0.00 50 814.6
20260505084726 9 52 29.0 38.6 0.00 0.00 0.00 52 814.6
20260505084616 9 43 17.7 25.7 0.00 0.00 0.00 52 814.7
20260505084356 9 46 11.3 16.1 0.00 0.00 0.00 53 814.7
20260505084136 8 45 14.5 20.9 0.00 0.00 0.00 52 814.7
20260505083915 8 355 6.4 11.3 0.00 0.00 0.00 49 814.7
20260505083806 8 41 12.9 19.3 0.00 0.00 0.00 49 814.7
20260505083656 8 101 12.9 25.7 0.00 0.00 0.00 48 814.7
20260505083435 8 62 24.1 35.4 0.00 0.00 0.00 50 814.6
20260505083326 8 52 24.1 32.2 0.00 0.00 0.00 54 814.6
20260505083216 8 66 25.7 32.2 0.00 0.00 0.00 52 814.7
20260505083106 8 52 22.5 29.0 0.00 0.00 0.00 51 814.7
20260505082955 8 34 20.9 33.8 0.00 0.00 0.00 52 814.6
20260505082846 8 53 24.1 32.2 0.00 0.00 0.00 52 814.6
20260505082736 8 42 16.1 45.1 0.00 0.00 0.00 54 814.5
20260505082626 8 92 14.5 17.7 0.00 0.00 0.00 55 814.7
20260505082516 8 38 16.1 20.9 0.00 0.00 0.00 55 814.7
20260505082406 8 41 12.9 19.3 0.00 0.00 0.00 54 814.6
20260505082256 8 43 17.7 24.1 0.00 0.00 0.00 53 814.7
20260505082146 8 50 25.7 37.0 0.00 0.00 0.00 53 814.7
20260505082035 8 15 12.9 19.3 0.00 0.00 0.00 52 814.7
20260505081815 8 95 24.1 30.6 0.00 0.00 0.00 52 814.6
20260505081706 8 76 22.5 29.0 0.00 0.00 0.00 54 814.6
20260505081556 8 61 19.3 29.0 0.00 0.00 0.00 53 814.7
20260505081446 8 56 25.7 35.4 0.00 0.00 0.00 53 814.6
20260505081336 8 55 27.4 35.4 0.00 0.00 0.00 53 814.6
20260505081226 8 48 27.4 37.0 0.00 0.00 0.00 53 814.6
20260505081115 8 54 29.0 40.2 0.00 0.00 0.00 53 814.6
20260505081006 8 44 27.4 38.6 0.00 0.00 0.00 53 814.6
20260505080855 8 56 24.1 33.8 0.00 0.00 0.00 55 814.6
20260505080746 8 48 24.1 32.2 0.00 0.00 0.00 55 814.6
20260505080635 8 40 20.9 30.6 0.00 0.00 0.00 54 814.6
20260505080525 8 46 25.7 30.6 0.00 0.00 0.00 52 814.6
20260505080415 8 45 24.1 37.0 0.00 0.00 0.00 54 814.6
20260505080156 8 55 27.4 35.4 0.00 0.00 0.00 54 814.6
20260505080046 8 53 27.4 33.8 0.00 0.00 0.00 54 814.6
20260505075936 8 50 20.9 30.6 0.00 0.00 0.00 53 814.6
20260505075825 8 47 20.9 35.4 0.00 0.00 0.00 55 814.6
20260505075716 8 46 20.9 30.6 0.00 0.00 0.00 55 814.6
20260505075455 8 39 22.5 37.0 0.00 0.00 0.00 56 814.6
20260505075345 8 25 14.5 25.7 0.00 0.00 0.00 55 814.6
20260505075236 8 41 22.5 30.6 0.00 0.00 0.00 54 814.6
20260505075126 8 42 25.7 37.0 0.00 0.00 0.00 55 814.6
20260505075016 8 46 22.5 33.8 0.00 0.00 0.00 54 814.6
20260505074646 8 40 24.1 33.8 0.00 0.00 0.00 56 814.6
20260505074536 8 28 14.5 24.1 0.00 0.00 0.00 55 814.7
20260505073836 8 46 24.1 27.4 0.00 0.00 0.00 56 814.6
20260505073726 7 27 20.9 33.8 0.00 0.00 0.00 56 814.6
20260505073246 8 34 20.9 27.4 0.00 0.00 0.00 54 814.6
20260505073136 8 52 27.4 40.2 0.00 0.00 0.00 54 814.6
20260505073026 7 61 20.9 29.0 0.00 0.00 0.00 55 814.6
20260505072915 7 38 20.9 33.8 0.00 0.00 0.00 56 814.3
20260505072806 7 30 22.5 33.8 0.00 0.00 0.00 56 814.5
20260505072655 7 42 25.7 33.8 0.00 0.00 0.00 56 814.5
20260505072545 7 48 20.9 30.6 0.00 0.00 0.00 57 814.6
20260505072436 7 34 24.1 33.8 0.00 0.00 0.00 55 814.6
20260505072326 8 34 22.5 32.2 0.00 0.00 0.00 55 814.6
20260505072216 7 47 25.7 40.2 0.00 0.00 0.00 55 814.5
20260505072106 7 41 20.9 30.6 0.00 0.00 0.00 56 814.3
20260505071956 7 54 24.1 32.2 0.00 0.00 0.00 56 814.6
20260505071845 7 27 16.1 25.7 0.00 0.00 0.00 58 814.6
20260505071736 7 20 19.3 27.4 0.00 0.00 0.00 58 814.6
20260505071406 7 20 22.5 32.2 0.00 0.00 0.00 57 814.3
20260505071255 7 16 19.3 29.0 0.00 0.00 0.00 57 814.6
20260505071146 7 8 22.5 32.2 0.00 0.00 0.00 59 814.5
20260505071035 7 17 17.7 27.4 0.00 0.00 0.00 57 814.5
20260505070816 7 38 19.3 27.4 0.00 0.00 0.00 59 814.3
20260505070706 7 18 17.7 30.6 0.00 0.00 0.00 59 814.3
20260505070556 7 14 22.5 29.0 0.00 0.00 0.00 56 814.3
20260505070446 7 16 19.3 33.8 0.00 0.00 0.00 59 814.3
20260505070226 7 12 24.1 32.2 0.00 0.00 0.00 58 814.3
20260505070005 7 45 25.7 35.4 0.00 0.00 0.00 58 814.3
20260505065856 7 21 17.7 32.2 0.00 0.00 0.00 58 814.3
20260505065746 7 22 22.5 32.2 0.00 0.00 0.00 59 814.3
20260505065636 7 21 19.3 33.8 0.00 0.00 0.00 59 814.3
20260505065526 7 21 20.9 30.6 0.00 0.00 0.00 58 814.3
20260505065156 7 16 14.5 29.0 0.00 0.00 0.00 58 814.3
20260505065045 7 36 22.5 32.2 0.00 0.00 0.00 56 814.3
20260505064936 7 47 24.1 37.0 0.00 0.00 0.00 57 814.2
20260505064825 7 37 19.3 30.6 0.00 0.00 0.00 59 814.2
20260505064606 7 16 20.9 35.4 0.00 0.00 0.00 58 814.3
20260505064456 7 23 19.3 33.8 0.00 0.00 0.00 58 814.2
20260505064345 7 36 24.1 33.8 0.00 0.00 0.00 57 814.3
20260505064235 7 28 19.3 32.2 0.00 0.00 0.00 58 814.2
20260505064126 7 32 22.5 30.6 0.00 0.00 0.00 58 814.2
20260505064016 7 12 20.9 30.6 0.00 0.00 0.00 58 814.2
20260505063906 7 18 19.3 29.0 0.00 0.00 0.00 59 814.2
20260505063756 7 14 19.3 30.6 0.00 0.00 0.00 58 814.2
20260505063646 7 25 22.5 35.4 0.00 0.00 0.00 58 814.2
20260505063536 7 47 19.3 33.8 0.00 0.00 0.00 58 814.2
20260505063425 7 42 19.3 27.4 0.00 0.00 0.00 59 814.2
20260505063316 7 20 19.3 30.6 0.00 0.00 0.00 59 814.2
20260505063206 7 21 19.3 32.2 0.00 0.00 0.00 59 814.2
20260505063056 7 14 16.1 29.0 0.00 0.00 0.00 60 814.2
20260505062946 7 24 17.7 29.0 0.00 0.00 0.00 59 814.2
20260505062835 7 18 20.9 35.4 0.00 0.00 0.00 59 814.2
20260505062726 7 13 24.1 33.8 0.00 0.00 0.00 58 814.2
20260505062616 7 41 24.1 33.8 0.00 0.00 0.00 58 814.1
20260505062506 7 36 22.5 32.2 0.00 0.00 0.00 58 814.2
20260505062355 7 36 25.7 37.0 0.00 0.00 0.00 59 814.2
20260505062136 7 29 22.5 30.6 0.00 0.00 0.00 59 814.2
20260505062025 7 29 24.1 33.8 0.00 0.00 0.00 58 814.2
20260505061915 7 31 27.4 38.6 0.00 0.00 0.00 58 814.2
20260505061806 7 48 22.5 37.0 0.00 0.00 0.00 59 814.2
20260505061655 6 46 20.9 27.4 0.00 0.00 0.00 60 814.2
20260505061436 7 20 24.1 38.6 0.00 0.00 0.00 59 814.2
20260505061326 7 20 19.3 33.8 0.00 0.00 0.00 58 814.2
20260505061216 7 48 25.7 33.8 0.00 0.00 0.00 58 814.2
20260505061106 7 34 24.1 37.0 0.00 0.00 0.00 59 814.1
20260505060956 6 32 20.9 32.2 0.00 0.00 0.00 59 814.2
20260505060845 6 37 22.5 32.2 0.00 0.00 0.00 59 814.2
20260505060735 6 24 20.9 29.0 0.00 0.00 0.00 59 814.2
20260505060626 6 16 19.3 30.6 0.00 0.00 0.00 60 813.9
20260505060515 6 22 20.9 33.8 0.00 0.00 0.00 60 813.9
20260505060406 6 8 19.3 29.0 0.00 0.00 0.00 59 814.2
20260505060255 6 7 27.4 33.8 0.00 0.00 0.00 59 813.9
20260505060036 6 14 20.9 33.8 0.00 0.00 0.00 59 813.9
20260505055925 6 16 20.9 33.8 0.00 0.00 0.00 59 814.2
20260505055706 6 24 22.5 37.0 0.00 0.00 0.00 60 813.9
20260505055556 6 14 22.5 37.0 0.00 0.00 0.00 60 814.1
20260505055445 6 23 25.7 38.6 0.00 0.00 0.00 60 813.9
20260505055336 6 19 22.5 35.4 0.00 0.00 0.00 60 813.9
20260505055225 6 20 17.7 30.6 0.00 0.00 0.00 60 813.9
20260505055116 6 22 22.5 38.6 0.00 0.00 0.00 59 813.8
20260505055005 6 25 20.9 35.4 0.00 0.00 0.00 60 814.1
20260505054855 6 21 24.1 33.8 0.00 0.00 0.00 59 813.8
20260505054745 6 12 29.0 43.5 0.00 0.00 0.00 59 813.8
20260505054636 6 8 32.2 46.7 0.00 0.00 0.00 59 813.8
20260505054526 6 11 32.2 43.5 0.00 0.00 0.00 60 813.8
20260505054416 6 9 30.6 40.2 0.00 0.00 0.00 60 813.9
20260505054305 6 9 33.8 43.5 0.00 0.00 0.00 60 813.8
20260505054155 6 11 33.8 41.8 0.00 0.00 0.00 60 813.8
20260505054045 6 11 27.4 38.6 0.00 0.00 0.00 61 813.8
20260505053935 6 10 30.6 40.2 0.00 0.00 0.00 60 813.8
20260505053826 6 8 33.8 46.7 0.00 0.00 0.00 60 813.8
20260505053715 6 12 25.7 37.0 0.00 0.00 0.00 61 813.8
20260505053455 6 11 30.6 46.7 0.00 0.00 0.00 60 813.8
20260505053346 6 10 30.6 37.0 0.00 0.00 0.00 60 813.8
20260505053126 6 8 24.1 33.8 0.00 0.00 0.00 61 813.8
20260505053015 6 6 30.6 38.6 0.00 0.00 0.00 61 813.8
20260505052905 6 12 29.0 37.0 0.00 0.00 0.00 62 813.8
20260505052755 6 8 29.0 37.0 0.00 0.00 0.00 61 813.8
20260505052646 6 5 29.0 38.6 0.00 0.00 0.00 62 813.8
20260505052536 6 5 30.6 43.5 0.00 0.00 0.00 61 813.8
20260505052425 6 2 33.8 41.8 0.00 0.00 0.00 61 813.8
20260505052315 6 0 33.8 41.8 0.00 0.00 0.00 61 813.8
20260505052055 6 3 32.2 40.2 0.00 0.00 0.00 60 813.7
20260505051945 6 11 33.8 43.5 0.00 0.00 0.00 61 813.8
20260505051615 6 7 35.4 46.7 0.00 0.00 0.00 60 813.5
20260505051505 6 4 37.0 56.3 0.00 0.00 0.00 60 813.8
20260505051245 6 15 32.2 43.5 0.00 0.00 0.00 61 813.8
20260505051135 6 11 32.2 41.8 0.00 0.00 0.00 61 813.8
20260505051026 6 2 25.7 37.0 0.00 0.00 0.00 61 813.8
20260505050915 6 10 33.8 41.8 0.00 0.00 0.00 61 813.7
20260505050805 6 4 33.8 41.8 0.00 0.00 0.00 62 813.7
20260505050655 5 3 32.2 38.6 0.00 0.00 0.00 62 813.8
20260505050435 5 5 30.6 43.5 0.00 0.00 0.00 62 813.8
20260505050325 6 1 33.8 41.8 0.00 0.00 0.00 62 813.5
20260505050215 6 3 30.6 38.6 0.00 0.00 0.00 61 813.8
20260505050106 6 8 33.8 40.2 0.00 0.00 0.00 61 813.7
20260505041756 5 3 37.0 49.9 0.00 0.00 0.00 63 813.3
20260505041646 5 6 30.6 37.0 0.00 0.00 0.00 63 813.4
20260505041536 5 4 29.0 35.4 0.00 0.00 0.00 62 813.4
20260505041425 5 2 30.6 40.2 0.00 0.00 0.00 62 813.4
20260505041315 5 357 33.8 46.7 0.00 0.00 0.00 62 813.4
20260505041056 5 0 37.0 43.5 0.00 0.00 0.00 62 813.3
20260505040946 5 2 38.6 46.7 0.00 0.00 0.00 62 813.3
20260505040835 5 4 33.8 43.5 0.00 0.00 0.00 63 813.3
20260505040725 5 0 32.2 41.8 0.00 0.00 0.00 63 813.3
20260505040616 5 9 33.8 45.1 0.00 0.00 0.00 63 813.3
20260505040506 5 358 33.8 43.5 0.00 0.00 0.00 63 813.3
20260505040246 5 4 32.2 43.5 0.00 0.00 0.00 62 813.3
20260505040136 5 5 38.6 46.7 0.00 0.00 0.00 63 813.1
20260505040026 5 4 30.6 41.8 0.00 0.00 0.00 63 813.3
20260505035915 5 7 35.4 45.1 0.00 0.00 0.00 64 813.3
20260505035805 5 4 33.8 43.5 0.00 0.00 0.00 64 813.3
20260505035546 5 5 33.8 40.2 0.00 0.00 0.00 64 813.3
20260505035436 5 4 32.2 43.5 0.00 0.00 0.00 64 813.3
20260505035325 5 6 33.8 43.5 0.00 0.00 0.00 64 813.3
20260505035105 5 5 40.2 48.3 0.00 0.00 0.00 64 813.0
20260505034956 5 4 37.0 46.7 0.00 0.00 0.00 64 813.0
20260505034626 5 1 37.0 45.1 0.00 0.00 0.00 65 813.1
20260505034406 5 1 35.4 43.5 0.00 0.00 0.00 66 813.1
20260505034256 5 3 33.8 40.2 0.00 0.00 0.00 66 813.1
20260505034035 5 3 30.6 38.6 0.00 0.00 0.00 66 813.1
20260505033925 5 5 33.8 41.8 0.00 0.00 0.00 66 813.1
20260505033705 5 3 35.4 43.5 0.00 0.00 0.00 66 813.0
20260505033556 5 3 35.4 45.1 0.00 0.00 0.00 66 813.0
20260505033445 5 7 33.8 41.8 0.00 0.00 0.00 65 813.1
20260505033336 5 2 33.8 45.1 0.00 0.00 0.00 66 813.1
20260505033225 5 2 37.0 45.1 0.00 0.00 0.00 66 813.1
20260505033116 5 3 37.0 46.7 0.00 0.00 0.00 66 813.3
20260505033005 5 6 33.8 43.5 0.00 0.00 0.00 66 813.0
20260505032745 5 3 35.4 45.1 0.00 0.00 0.00 66 813.1
20260505032635 5 0 32.2 40.2 0.00 0.00 0.00 66 813.1
20260505032525 5 0 30.6 43.5 0.00 0.00 0.00 66 813.0
20260505032156 5 2 37.0 49.9 0.00 0.00 0.00 66 813.0
20260505032045 5 3 35.4 48.3 0.00 0.00 0.00 66 813.3
20260505031936 5 8 32.2 43.5 0.00 0.00 0.00 66 813.1
20260505031715 5 10 35.4 43.5 0.00 0.00 0.00 66 813.0
20260505031455 5 6 33.8 43.5 0.00 0.00 0.00 66 813.1
20260505031126 5 357 35.4 46.7 0.00 0.00 0.00 66 813.0
20260505030905 5 8 35.4 45.1 0.00 0.00 0.00 66 813.0
20260505030755 5 5 33.8 41.8 0.00 0.00 0.00 66 813.0
20260505030645 5 8 33.8 45.1 0.00 0.00 0.00 66 813.0
20260505030535 5 9 30.6 48.3 0.00 0.00 0.00 66 813.0
20260505030425 5 2 32.2 40.2 0.00 0.00 0.00 66 813.0
20260505030316 5 1 32.2 41.8 0.00 0.00 0.00 66 813.0
20260505030206 5 1 32.2 41.8 0.00 0.00 0.00 66 813.0
20260505030056 5 6 35.4 48.3 0.00 0.00 0.00 66 813.0
20260505025946 5 357 37.0 48.3 0.00 0.00 0.00 66 813.0
20260505025836 5 10 35.4 43.5 0.00 0.00 0.00 66 813.0
20260505025725 5 1 33.8 45.1 0.00 0.00 0.00 66 813.0
20260505025615 5 1 35.4 46.7 0.00 0.00 0.00 66 813.1
20260505025505 5 355 35.4 46.7 0.00 0.00 0.00 66 813.0
20260505025355 5 6 37.0 46.7 0.00 0.00 0.00 66 813.0
20260505025245 5 6 37.0 46.7 0.00 0.00 0.00 66 813.0
20260505025026 5 7 37.0 48.3 0.00 0.00 0.00 66 813.0
20260505024916 5 5 38.6 49.9 0.00 0.00 0.00 66 813.0
20260505024806 5 0 37.0 46.7 0.00 0.00 0.00 66 813.0
20260505024545 5 0 35.4 45.1 0.00 0.00 0.00 67 813.0
20260505024435 5 0 35.4 46.7 0.00 0.00 0.00 67 813.0
20260505024325 5 0 33.8 41.8 0.00 0.00 0.00 67 813.0
20260505024215 5 1 37.0 49.9 0.00 0.00 0.00 67 813.0
20260505023845 5 1 33.8 48.3 0.00 0.00 0.00 68 813.0
20260505023736 5 2 33.8 45.1 0.00 0.00 0.00 67 812.9
20260505023625 5 4 33.8 43.5 0.00 0.00 0.00 67 813.0
20260505023516 5 358 37.0 46.7 0.00 0.00 0.00 68 813.0
20260505023405 5 0 33.8 41.8 0.00 0.00 0.00 68 813.0
20260505023255 5 0 32.2 38.6 0.00 0.00 0.00 68 813.0
20260505023146 5 0 33.8 43.5 0.00 0.00 0.00 68 813.0
20260505023036 5 0 32.2 41.8 0.00 0.00 0.00 68 813.0
20260505022925 5 2 33.8 43.5 0.00 0.00 0.00 68 813.0
20260505022815 5 354 35.4 45.1 0.00 0.00 0.00 68 813.0
20260505022335 5 358 33.8 43.5 0.00 0.00 0.00 68 813.0
20260505022225 5 357 32.2 43.5 0.00 0.00 0.00 69 813.0
20260505022115 5 358 37.0 46.7 0.00 0.00 0.00 69 813.0
20260505022006 4 357 33.8 43.5 0.00 0.00 0.00 69 813.0
20260505021856 4 354 33.8 45.1 0.00 0.00 0.00 69 813.0
20260505021745 4 356 35.4 43.5 0.00 0.00 0.00 69 813.0
20260505021635 4 358 33.8 43.5 0.00 0.00 0.00 69 813.1
20260505021525 4 358 35.4 43.5 0.00 0.00 0.00 69 813.0
20260505021415 4 357 37.0 48.3 0.00 0.00 0.00 69 813.1
20260505021305 5 355 35.4 43.5 0.00 0.00 0.00 69 813.0
20260505021156 5 358 33.8 46.7 0.00 0.00 0.00 69 813.0
20260505021045 5 353 37.0 49.9 0.00 0.00 0.00 69 813.0
20260505020936 5 351 43.5 57.9 0.00 0.00 0.00 69 813.0
20260505020826 4 352 38.6 49.9 0.00 0.00 0.00 70 813.0
20260505020716 4 351 37.0 43.5 0.00 0.00 0.00 70 813.0
20260505020606 4 1 35.4 49.9 0.00 0.00 0.00 70 813.0
20260505020455 4 7 30.6 41.8 0.00 0.00 0.00 70 813.0
20260505020345 4 9 32.2 40.2 0.00 0.00 0.00 69 813.0
20260505020235 4 358 32.2 40.2 0.00 0.00 0.00 69 813.0
20260505020125 4 344 40.2 56.3 0.00 0.00 0.00 70 813.0
20260505015905 4 5 32.2 40.2 0.00 0.00 0.00 70 813.1
20260505015756 4 1 37.0 46.7 0.00 0.00 0.00 70 813.0
20260505015645 4 358 33.8 43.5 0.00 0.00 0.00 70 813.0
20260505015535 4 354 32.2 41.8 0.00 0.00 0.00 70 813.1
20260505015427 4 353 33.8 45.1 0.00 0.00 0.00 70 813.1
20260505015315 4 4 29.0 38.6 0.00 0.00 0.00 70 813.1
20260505015055 4 4 38.6 49.9 0.00 0.00 0.00 70 813.0
20260505014945 4 7 32.2 38.6 0.00 0.00 0.00 69 813.0
20260505014835 5 358 32.2 38.6 0.00 0.00 0.00 69 813.0
20260505014725 5 350 35.4 41.8 0.00 0.00 0.00 69 813.0
20260505014615 5 353 37.0 45.1 0.00 0.00 0.00 69 812.9
20260505014505 4 3 35.4 45.1 0.00 0.00 0.00 69 813.0
20260505014355 4 10 37.0 43.5 0.00 0.00 0.00 70 813.0
20260505014245 4 14 33.8 45.1 0.00 0.00 0.00 70 813.0
20260505014135 4 15 33.8 45.1 0.00 0.00 0.00 70 813.0
20260505014025 4 8 33.8 41.8 0.00 0.00 0.00 70 813.0
20260505013915 5 12 29.0 38.6 0.00 0.00 0.00 69 813.1
20260505013655 5 0 35.4 48.3 0.00 0.00 0.00 69 813.1
20260505013545 5 2 35.4 46.7 0.00 0.00 0.00 69 813.0
20260505013435 5 358 33.8 43.5 0.00 0.00 0.00 69 813.0
20260505013325 5 358 37.0 46.7 0.00 0.00 0.00 69 813.0
20260505013215 5 5 37.0 46.7 0.00 0.00 0.00 70 813.0
20260505013105 5 8 37.0 49.9 0.00 0.00 0.00 70 813.0
20260505012955 5 4 33.8 45.1 0.00 0.00 0.00 69 813.0
20260505012845 5 2 32.2 43.5 0.00 0.00 0.00 69 813.1
20260505012735 5 2 37.0 46.7 0.00 0.00 0.00 69 813.0
20260505012625 5 8 33.8 40.2 0.00 0.00 0.00 69 813.0
20260505012515 5 11 35.4 48.3 0.00 0.00 0.00 69 813.0
20260505012405 5 13 35.4 43.5 0.00 0.00 0.00 70 813.0
20260505012255 5 8 30.6 37.0 0.00 0.00 0.00 70 813.0
20260505012145 5 6 32.2 41.8 0.00 0.00 0.00 70 813.1
20260505012035 5 8 35.4 45.1 0.00 0.00 0.00 70 813.1
20260505011925 5 9 32.2 40.2 0.00 0.00 0.00 70 813.1
20260505011815 5 10 33.8 41.8 0.00 0.00 0.00 70 813.0
20260505011705 5 6 32.2 38.6 0.00 0.00 0.00 70 813.1
20260505011555 5 8 30.6 40.2 0.00 0.00 0.00 69 813.0
20260505011445 5 9 33.8 43.5 0.00 0.00 0.00 68 813.0
20260505011335 5 14 33.8 45.1 0.00 0.00 0.00 68 813.0
20260505011225 5 18 27.4 41.8 0.00 0.00 0.00 69 813.0
20260505011115 5 14 30.6 43.5 0.00 0.00 0.00 69 813.0
20260505010855 5 12 30.6 41.8 0.00 0.00 0.00 68 813.0
20260505010635 5 17 27.4 41.8 0.00 0.00 0.00 67 813.0
20260505010526 5 22 25.7 38.6 0.00 0.00 0.00 67 813.0
20260505010415 5 30 30.6 43.5 0.00 0.00 0.00 67 813.0
20260505010305 5 28 27.4 41.8 0.00 0.00 0.00 66 813.0
20260505010045 5 23 29.0 45.1 0.00 0.00 0.00 67 813.1
20260505005935 5 21 27.4 40.2 0.00 0.00 0.00 67 813.0
20260505005825 5 24 27.4 40.2 0.00 0.00 0.00 67 813.1
20260505005715 5 31 27.4 38.6 0.00 0.00 0.00 67 813.1
20260505005605 5 27 27.4 40.2 0.00 0.00 0.00 67 813.0
20260505005455 5 23 27.4 40.2 0.00 0.00 0.00 67 813.0
20260505005345 5 29 27.4 40.2 0.00 0.00 0.00 67 813.1
20260505005125 5 30 27.4 37.0 0.00 0.00 0.00 67 813.1
20260505005015 5 32 30.6 40.2 0.00 0.00 0.00 67 813.0
20260505004905 5 32 29.0 40.2 0.00 0.00 0.00 67 813.0
20260505004755 5 31 29.0 41.8 0.00 0.00 0.00 67 813.0
20260505004645 5 33 29.0 38.6 0.00 0.00 0.00 66 813.0
20260505004535 5 35 30.6 37.0 0.00 0.00 0.00 66 813.1
20260505004425 5 36 32.2 45.1 0.00 0.00 0.00 66 813.1
20260505004315 5 40 33.8 41.8 0.00 0.00 0.00 66 813.1
20260505003945 5 35 33.8 43.5 0.00 0.00 0.00 65 813.0
20260505003835 5 34 33.8 46.7 0.00 0.00 0.00 64 813.0
20260505003505 5 40 37.0 46.7 0.00 0.00 0.00 63 813.0
20260505003355 5 40 38.6 45.1 0.00 0.00 0.00 63 813.0
20260505003245 6 40 38.6 45.1 0.00 0.00 0.00 63 813.0
20260505003135 6 42 38.6 43.5 0.00 0.00 0.00 63 813.0
20260505002915 5 41 40.2 49.9 0.00 0.00 0.00 63 813.0
20260505002805 5 43 38.6 46.7 0.00 0.00 0.00 63 813.0
20260505002656 5 41 41.8 49.9 0.00 0.00 0.00 63 813.0
20260505002546 5 41 38.6 48.3 0.00 0.00 0.00 63 813.0
20260505002435 5 44 37.0 43.5 0.00 0.00 0.00 63 813.0
20260505002325 6 41 37.0 46.7 0.00 0.00 0.00 63 813.0
20260505002215 5 42 37.0 45.1 0.00 0.00 0.00 63 813.0
20260505002105 5 42 40.2 49.9 0.00 0.00 0.00 63 813.0
20260505001955 5 41 37.0 45.1 0.00 0.00 0.00 63 813.0
20260505001735 6 41 38.6 46.7 0.00 0.00 0.00 62 813.0
20260505001515 6 41 40.2 46.7 0.00 0.00 0.00 62 813.0
20260505001405 6 40 41.8 48.3 0.00 0.00 0.00 62 813.0
20260505001255 6 41 40.2 48.3 0.00 0.00 0.00 62 813.0
20260505001145 6 42 40.2 48.3 0.00 0.00 0.00 62 813.0
20260505001035 6 40 40.2 48.3 0.00 0.00 0.00 62 813.0
20260505000925 6 41 40.2 49.9 0.00 0.00 0.00 62 813.0
20260505000815 6 40 40.2 46.7 0.00 0.00 0.00 62 813.0
20260505000705 6 41 43.5 48.3 0.00 0.00 0.00 62 813.0
20260505000555 6 42 40.2 46.7 0.00 0.00 0.00 62 813.0
20260505000445 6 41 43.5 48.3 0.00 0.00 0.00 62 813.0
20260505000335 6 43 43.5 49.9 0.00 0.00 0.00 62 813.0
20260505000226 6 44 41.8 48.3 0.00 0.00 0.00 62 813.0
20260505000116 6 43 43.5 51.5 0.00 0.00 0.00 62 813.0
20260504235635 6 39 41.8 48.3 0.00 0.00 0.00 62 813.0
20260504235525 6 41 41.8 46.7 0.00 0.00 0.00 62 813.0
20260504235415 6 42 40.2 45.1 0.00 0.00 0.00 62 813.0
20260504235305 6 40 41.8 49.9 0.00 0.00 0.00 62 813.0
20260504235155 6 40 40.2 46.7 0.00 0.00 0.00 62 813.0
20260504235045 6 40 41.8 46.7 0.00 0.00 0.00 62 813.0
20260504234935 6 42 43.5 49.9 0.00 0.00 0.00 62 813.0
20260504234715 6 40 35.4 46.7 0.00 0.00 0.00 62 813.0
20260504234605 6 36 32.2 41.8 0.00 0.00 0.00 61 813.1
20260504234455 6 37 33.8 45.1 0.00 0.00 0.00 61 813.1
20260504234345 6 40 41.8 51.5 0.00 0.00 0.00 62 813.1
20260504234235 6 41 38.6 45.1 0.00 0.00 0.00 62 813.1
20260504234125 6 35 35.4 46.7 0.00 0.00 0.00 62 813.1
20260504234015 6 42 38.6 48.3 0.00 0.00 0.00 62 813.1
20260504233905 6 39 35.4 41.8 0.00 0.00 0.00 62 813.1
20260504233645 6 41 35.4 45.1 0.00 0.00 0.00 61 813.3
20260504233535 6 36 38.6 48.3 0.00 0.00 0.00 61 813.3
20260504233425 6 41 40.2 48.3 0.00 0.00 0.00 62 813.1
20260504233315 6 40 40.2 49.9 0.00 0.00 0.00 62 813.3
20260504233206 6 39 35.4 45.1 0.00 0.00 0.00 61 813.3
20260504233055 6 39 37.0 46.7 0.00 0.00 0.00 61 813.3
20260504232945 6 38 33.8 43.5 0.00 0.00 0.00 61 813.3
20260504232835 6 40 38.6 48.3 0.00 0.00 0.00 61 813.3
20260504232725 6 40 40.2 49.9 0.00 0.00 0.00 61 813.1
20260504232615 6 39 38.6 48.3 0.00 0.00 0.00 61 813.3
20260504232355 6 40 40.2 48.3 0.00 0.00 0.00 61 813.3
20260504232245 6 34 37.0 46.7 0.00 0.00 0.00 61 813.3
20260504232136 6 39 37.0 45.1 0.00 0.00 0.00 61 813.3
20260504232025 6 41 43.5 49.9 0.00 0.00 0.00 61 813.3
20260504231915 6 39 41.8 51.5 0.00 0.00 0.00 61 813.0
20260504231545 6 42 38.6 48.3 0.00 0.00 0.00 61 813.3
20260504231435 6 40 38.6 45.1 0.00 0.00 0.00 61 813.3
20260504231325 6 37 41.8 48.3 0.00 0.00 0.00 62 813.0
20260504231215 6 32 37.0 49.9 0.00 0.00 0.00 62 813.0
20260504231105 6 35 35.4 43.5 0.00 0.00 0.00 61 813.3
20260504230955 6 36 37.0 46.7 0.00 0.00 0.00 61 813.3
20260504230735 6 39 35.4 46.7 0.00 0.00 0.00 61 813.4
20260504230625 6 35 32.2 41.8 0.00 0.00 0.00 61 813.4
20260504230515 6 37 35.4 43.5 0.00 0.00 0.00 61 813.4
20260504230405 6 39 38.6 45.1 0.00 0.00 0.00 61 813.3
20260504230255 6 39 33.8 43.5 0.00 0.00 0.00 61 813.3
20260504230145 6 35 32.2 43.5 0.00 0.00 0.00 61 813.3
20260504230035 6 38 40.2 49.9 0.00 0.00 0.00 61 813.4
20260504225925 6 33 33.8 45.1 0.00 0.00 0.00 61 813.4
20260504225815 6 36 37.0 45.1 0.00 0.00 0.00 61 813.3
20260504225705 6 38 35.4 46.7 0.00 0.00 0.00 61 813.4
20260504225445 6 36 33.8 41.8 0.00 0.00 0.00 61 813.4
20260504225335 6 38 35.4 46.7 0.00 0.00 0.00 61 813.3
20260504225225 6 39 40.2 46.7 0.00 0.00 0.00 62 813.4
20260504225115 6 43 37.0 46.7 0.00 0.00 0.00 62 813.4
20260504225005 5 35 37.0 49.9 0.00 0.00 0.00 62 813.3
20260504224745 6 22 25.7 37.0 0.00 0.00 0.00 62 813.4
20260504224635 6 21 22.5 37.0 0.00 0.00 0.00 62 813.4
20260504224525 6 21 24.1 38.6 0.00 0.00 0.00 61 813.4
20260504224415 6 22 25.7 40.2 0.00 0.00 0.00 61 813.4
20260504224305 6 28 30.6 41.8 0.00 0.00 0.00 61 813.4
20260504224155 6 35 33.8 43.5 0.00 0.00 0.00 61 813.4
20260504224045 6 34 32.2 40.2 0.00 0.00 0.00 61 813.4
20260504223935 6 35 33.8 43.5 0.00 0.00 0.00 61 813.4
20260504223825 6 37 32.2 37.0 0.00 0.00 0.00 61 813.4
20260504223715 6 34 32.2 38.6 0.00 0.00 0.00 61 813.4
20260504223605 6 40 32.2 38.6 0.00 0.00 0.00 61 813.4
20260504223455 6 34 32.2 40.2 0.00 0.00 0.00 61 813.5
20260504223345 6 30 27.4 40.2 0.00 0.00 0.00 61 813.5
20260504223235 6 38 33.8 40.2 0.00 0.00 0.00 61 813.5
20260504223125 6 39 35.4 40.2 0.00 0.00 0.00 61 813.5
20260504223015 6 41 37.0 41.8 0.00 0.00 0.00 61 813.5
20260504222905 6 41 35.4 40.2 0.00 0.00 0.00 62 813.5
20260504222755 6 40 35.4 41.8 0.00 0.00 0.00 62 813.5
20260504222645 5 40 33.8 41.8 0.00 0.00 0.00 62 813.5
20260504222535 6 34 25.7 37.0 0.00 0.00 0.00 62 813.5
20260504222425 6 32 30.6 40.2 0.00 0.00 0.00 62 813.4
20260504222315 5 34 29.0 37.0 0.00 0.00 0.00 62 813.5
20260504222205 5 40 30.6 37.0 0.00 0.00 0.00 62 813.5
20260504221945 5 33 27.4 37.0 0.00 0.00 0.00 62 813.8
20260504221835 5 31 27.4 37.0 0.00 0.00 0.00 62 813.7
20260504221725 5 31 27.4 37.0 0.00 0.00 0.00 62 813.7
20260504221615 5 22 19.3 33.8 0.00 0.00 0.00 62 813.7
20260504221505 5 24 24.1 37.0 0.00 0.00 0.00 62 813.7
20260504221356 5 32 27.4 33.8 0.00 0.00 0.00 62 813.7
20260504221245 5 34 27.4 37.0 0.00 0.00 0.00 62 813.7
20260504221135 6 32 27.4 33.8 0.00 0.00 0.00 62 813.8
20260504221025 6 37 29.0 37.0 0.00 0.00 0.00 61 813.7
20260504220806 6 39 29.0 35.4 0.00 0.00 0.00 61 813.8
20260504220655 6 37 32.2 38.6 0.00 0.00 0.00 61 813.5
20260504220545 6 38 32.2 38.6 0.00 0.00 0.00 61 813.5
20260504220215 6 40 32.2 38.6 0.00 0.00 0.00 62 813.7
20260504220105 6 39 30.6 38.6 0.00 0.00 0.00 61 813.7
20260504215955 6 37 29.0 35.4 0.00 0.00 0.00 61 813.7
20260504215735 6 37 33.8 41.8 0.00 0.00 0.00 61 813.5
20260504215625 6 36 30.6 38.6 0.00 0.00 0.00 61 813.5
20260504215515 6 39 33.8 40.2 0.00 0.00 0.00 60 813.7
20260504215405 6 40 33.8 40.2 0.00 0.00 0.00 60 813.7
20260504215255 6 41 33.8 40.2 0.00 0.00 0.00 60 813.5
20260504215035 6 42 33.8 41.8 0.00 0.00 0.00 60 813.5
20260504214815 6 42 37.0 41.8 0.00 0.00 0.00 60 813.4
20260504214555 6 43 35.4 41.8 0.00 0.00 0.00 60 813.7
20260504214445 6 41 35.4 40.2 0.00 0.00 0.00 60 813.5
20260504214335 6 40 35.4 41.8 0.00 0.00 0.00 61 813.5
20260504214115 6 44 33.8 38.6 0.00 0.00 0.00 60 813.8
20260504214005 6 44 32.2 37.0 0.00 0.00 0.00 60 813.5
20260504213855 6 43 33.8 38.6 0.00 0.00 0.00 60 813.7
20260504213745 6 43 35.4 40.2 0.00 0.00 0.00 60 813.5
20260504213415 6 42 33.8 37.0 0.00 0.00 0.00 60 813.8
20260504213306 6 41 33.8 38.6 0.00 0.00 0.00 60 813.5
20260504213155 6 41 35.4 38.6 0.00 0.00 0.00 60 813.5
20260504212935 6 40 35.4 41.8 0.00 0.00 0.00 60 813.7
20260504212825 6 45 30.6 35.4 0.00 0.00 0.00 60 813.8
20260504212715 6 41 37.0 40.2 0.00 0.00 0.00 60 813.7
20260504212605 6 42 37.0 41.8 0.00 0.00 0.00 60 813.7
20260504212455 6 45 35.4 40.2 0.00 0.00 0.00 60 813.7
20260504212345 6 45 35.4 41.8 0.00 0.00 0.00 59 813.5
20260504212235 6 42 38.6 41.8 0.00 0.00 0.00 59 813.7
20260504212125 6 41 40.2 43.5 0.00 0.00 0.00 59 813.7
20260504211905 6 44 40.2 45.1 0.00 0.00 0.00 60 813.5
20260504211755 6 43 38.6 43.5 0.00 0.00 0.00 60 813.5
20260504211645 6 41 37.0 41.8 0.00 0.00 0.00 60 813.5
20260504211535 6 43 37.0 43.5 0.00 0.00 0.00 60 813.5
20260504211425 6 45 35.4 41.8 0.00 0.00 0.00 60 813.5
20260504211205 6 47 35.4 40.2 0.00 0.00 0.00 60 813.7
20260504211055 6 46 37.0 41.8 0.00 0.00 0.00 60 813.5
20260504210835 6 43 35.4 41.8 0.00 0.00 0.00 60 813.7
20260504210725 6 42 33.8 38.6 0.00 0.00 0.00 60 813.5
20260504210615 6 43 35.4 40.2 0.00 0.00 0.00 60 813.4
20260504210505 6 43 35.4 40.2 0.00 0.00 0.00 60 813.5
20260504210355 6 45 35.4 40.2 0.00 0.00 0.00 60 813.5
20260504210135 6 52 33.8 37.0 0.00 0.00 0.00 60 813.5
20260504210025 6 51 33.8 38.6 0.00 0.00 0.00 60 813.4
20260504205915 6 46 35.4 40.2 0.00 0.00 0.00 60 813.4
20260504205805 6 50 33.8 38.6 0.00 0.00 0.00 60 813.5
20260504205545 6 52 38.6 43.5 0.00 0.00 0.00 60 813.4
20260504205435 6 53 37.0 43.5 0.00 0.00 0.00 60 813.4
20260504205325 6 51 38.6 43.5 0.00 0.00 0.00 60 813.4
20260504205215 6 50 38.6 43.5 0.00 0.00 0.00 60 813.4
20260504205105 6 51 37.0 41.8 0.00 0.00 0.00 61 813.4
20260504204955 6 51 38.6 43.5 0.00 0.00 0.00 61 813.4
20260504204845 6 52 38.6 43.5 0.00 0.00 0.00 61 813.4
20260504204735 6 53 35.4 43.5 0.00 0.00 0.00 60 813.4
20260504204625 6 48 37.0 43.5 0.00 0.00 0.00 60 813.4
20260504204515 6 57 35.4 43.5 0.00 0.00 0.00 60 813.4
20260504204255 6 48 40.2 45.1 0.00 0.00 0.00 60 813.4
20260504204145 6 52 41.8 46.7 0.00 0.00 0.00 60 813.3
20260504204035 6 53 37.0 41.8 0.00 0.00 0.00 60 813.4
20260504203925 6 54 40.2 45.1 0.00 0.00 0.00 60 813.3
20260504203705 6 53 35.4 41.8 0.00 0.00 0.00 60 813.4
20260504203555 6 51 37.0 41.8 0.00 0.00 0.00 60 813.4
20260504203445 6 58 33.8 40.2 0.00 0.00 0.00 60 813.4
20260504203335 6 56 37.0 43.5 0.00 0.00 0.00 60 813.4
20260504203115 6 56 38.6 45.1 0.00 0.00 0.00 60 813.4
20260504202745 6 55 35.4 41.8 0.00 0.00 0.00 61 813.4
20260504202635 6 55 33.8 38.6 0.00 0.00 0.00 60 813.4
20260504202525 6 53 37.0 41.8 0.00 0.00 0.00 60 813.4
20260504202415 6 56 37.0 41.8 0.00 0.00 0.00 60 813.4
20260504202305 6 62 33.8 41.8 0.00 0.00 0.00 59 813.4
20260504202045 6 53 43.5 48.3 0.00 0.00 0.00 60 813.4
20260504201935 6 49 40.2 46.7 0.00 0.00 0.00 60 813.4
20260504201825 6 56 37.0 45.1 0.00 0.00 0.00 59 813.4
20260504201715 6 56 38.6 46.7 0.00 0.00 0.00 60 813.4
20260504201605 6 54 40.2 45.1 0.00 0.00 0.00 60 813.4
20260504201455 6 52 38.6 46.7 0.00 0.00 0.00 60 813.4
20260504201345 6 56 38.6 45.1 0.00 0.00 0.00 60 813.4
20260504201235 6 54 37.0 45.1 0.00 0.00 0.00 60 813.4
20260504201015 6 54 37.0 45.1 0.00 0.00 0.00 60 813.4
20260504200755 6 56 37.0 40.2 0.00 0.00 0.00 59 813.3
20260504200646 6 59 37.0 41.8 0.00 0.00 0.00 59 813.4
20260504200425 6 54 40.2 45.1 0.00 0.00 0.00 59 813.3
20260504200315 6 55 40.2 48.3 0.00 0.00 0.00 59 813.4
20260504200205 6 54 35.4 45.1 0.00 0.00 0.00 58 813.3
20260504195945 6 58 41.8 46.7 0.00 0.00 0.00 58 813.3
20260504195615 6 54 40.2 51.5 0.00 0.00 0.00 58 813.4
20260504195506 6 57 38.6 48.3 0.00 0.00 0.00 58 813.3
20260504195355 6 52 43.5 51.5 0.00 0.00 0.00 58 813.3
20260504195245 6 51 45.1 53.1 0.00 0.00 0.00 59 813.3
20260504195135 6 52 38.6 48.3 0.00 0.00 0.00 58 813.3
20260504195025 6 53 40.2 46.7 0.00 0.00 0.00 58 813.3
20260504194915 6 52 41.8 49.9 0.00 0.00 0.00 58 813.3
20260504194807 6 51 43.5 53.1 0.00 0.00 0.00 59 813.3
20260504194655 6 48 41.8 48.3 0.00 0.00 0.00 58 813.3
20260504194545 6 51 38.6 45.1 0.00 0.00 0.00 59 813.4
20260504194435 6 53 40.2 53.1 0.00 0.00 0.00 58 813.3
20260504194325 6 53 38.6 43.5 0.00 0.00 0.00 58 813.4
20260504194215 6 56 37.0 41.8 0.00 0.00 0.00 57 813.4
20260504193956 6 55 41.8 49.9 0.00 0.00 0.00 58 813.1
20260504193845 6 54 40.2 49.9 0.00 0.00 0.00 57 813.1
20260504193735 6 57 37.0 41.8 0.00 0.00 0.00 57 813.4
20260504193625 6 56 38.6 45.1 0.00 0.00 0.00 57 813.4
20260504193515 6 57 41.8 49.9 0.00 0.00 0.00 58 813.3
20260504193405 6 59 40.2 48.3 0.00 0.00 0.00 57 813.3
20260504193255 6 55 43.5 49.9 0.00 0.00 0.00 57 813.4
20260504193145 6 53 40.2 46.7 0.00 0.00 0.00 57 813.4
20260504193036 6 53 40.2 46.7 0.00 0.00 0.00 57 813.4
20260504192925 6 55 40.2 49.9 0.00 0.00 0.00 57 813.4
20260504192815 6 52 43.5 51.5 0.00 0.00 0.00 57 813.3
20260504192705 6 55 41.8 49.9 0.00 0.00 0.00 57 813.3
20260504192555 6 56 38.6 46.7 0.00 0.00 0.00 56 813.4
20260504192445 6 53 43.5 48.3 0.00 0.00 0.00 56 813.3
20260504192335 6 55 43.5 51.5 0.00 0.00 0.00 56 813.3
20260504192225 6 48 43.5 53.1 0.00 0.00 0.00 56 813.3
20260504192115 6 50 43.5 51.5 0.00 0.00 0.00 56 813.1
20260504192005 6 55 37.0 46.7 0.00 0.00 0.00 56 813.3
20260504191856 6 53 45.1 53.1 0.00 0.00 0.00 56 813.3
20260504191745 6 56 41.8 51.5 0.00 0.00 0.00 56 813.3
20260504191635 6 57 38.6 49.9 0.00 0.00 0.00 56 813.3
20260504191525 6 55 43.5 48.3 0.00 0.00 0.00 55 813.3
20260504191415 6 61 41.8 48.3 0.00 0.00 0.00 55 813.3
20260504191155 6 54 43.5 49.9 0.00 0.00 0.00 55 813.1
20260504190935 6 55 46.7 62.8 0.00 0.00 0.00 56 813.0
20260504190825 6 52 45.1 54.7 0.00 0.00 0.00 55 813.3
20260504190605 6 55 43.5 51.5 0.00 0.00 0.00 54 813.1
20260504190455 7 55 45.1 51.5 0.00 0.00 0.00 54 813.1
20260504190345 7 56 45.1 51.5 0.00 0.00 0.00 54 813.1
20260504190235 6 53 48.3 54.7 0.00 0.00 0.00 54 813.1
20260504190125 6 56 49.9 57.9 0.00 0.00 0.00 54 813.1
20260504190015 6 55 46.7 56.3 0.00 0.00 0.00 54 813.1
20260504185905 6 54 48.3 56.3 0.00 0.00 0.00 54 813.0
20260504185755 6 57 41.8 54.7 0.00 0.00 0.00 54 813.1
20260504185535 6 52 48.3 53.1 0.00 0.00 0.00 54 813.1
20260504185425 6 55 43.5 53.1 0.00 0.00 0.00 53 813.3
20260504185205 6 61 38.6 49.9 0.00 0.00 0.00 53 813.1
20260504185057 6 63 38.6 46.7 0.00 0.00 0.00 53 813.4
20260504184945 6 59 45.1 54.7 0.00 0.00 0.00 53 813.1
20260504184835 6 55 43.5 49.9 0.00 0.00 0.00 52 813.0
20260504184731 6 57 41.8 49.9 0.00 0.00 0.00 52 813.1
20260504184355 6 65 40.2 48.3 0.00 0.00 0.00 53 813.3
20260504184245 6 70 35.4 48.3 0.00 0.00 0.00 53 813.3
20260504184135 6 80 30.6 38.6 0.00 0.00 0.00 52 813.5
20260504184025 7 67 33.8 41.8 0.00 0.00 0.00 52 813.3
20260504183915 7 74 35.4 51.5 0.00 0.00 0.00 52 813.4
20260504183656 7 73 40.2 48.3 0.00 0.00 0.00 51 813.3
20260504183546 7 73 38.6 48.3 0.00 0.00 0.00 51 813.3
20260504183435 7 74 41.8 53.1 0.00 0.00 0.00 51 813.3
20260504183325 7 77 37.0 51.5 0.00 0.00 0.00 51 813.4
20260504183217 7 79 38.6 56.3 0.00 0.00 0.00 51 813.3
20260504182956 6 76 33.8 45.1 0.00 0.00 0.00 51 813.1
20260504182848 6 73 38.6 49.9 0.00 0.00 0.00 51 813.4
20260504182735 6 79 33.8 46.7 0.00 0.00 0.00 52 813.4
20260504182625 6 83 33.8 45.1 0.00 0.00 0.00 51 813.4
20260504182515 7 72 32.2 40.2 0.00 0.00 0.00 51 813.3
20260504182405 7 74 33.8 41.8 0.00 0.00 0.00 51 813.5
20260504182144 7 75 37.0 43.5 0.00 0.00 0.00 50 813.5
20260504181927 7 82 37.0 49.9 0.00 0.00 0.00 50 813.4
20260504181705 7 78 37.0 46.7 0.00 0.00 0.00 50 813.4
20260504181555 7 75 38.6 49.9 0.00 0.00 0.00 50 813.4
20260504181445 7 82 40.2 54.7 0.00 0.00 0.00 50 813.4
20260504181228 7 83 35.4 48.3 0.00 0.00 0.00 50 813.4
20260504181115 7 74 35.4 53.1 0.00 0.00 0.00 50 813.5
20260504181005 7 75 35.4 43.5 0.00 0.00 0.00 50 813.3
20260504180855 7 76 35.4 46.7 0.00 0.00 0.00 50 813.4
20260504180416 7 66 35.4 54.7 0.00 0.00 0.00 50 813.3
20260504180305 7 72 33.8 48.3 0.00 0.00 0.00 50 813.5
20260504180155 7 77 32.2 41.8 0.00 0.00 0.00 49 813.5
20260504180046 7 77 33.8 49.9 0.00 0.00 0.00 49 813.5
20260504175937 7 73 37.0 49.9 0.00 0.00 0.00 49 813.3
20260504175825 7 79 37.0 51.5 0.00 0.00 0.00 49 813.5
20260504175715 7 79 38.6 49.9 0.00 0.00 0.00 49 813.4
20260504175605 7 81 33.8 43.5 0.00 0.00 0.00 49 813.4
20260504175455 7 72 33.8 41.8 0.00 0.00 0.00 49 813.4
20260504175346 7 68 37.0 43.5 0.00 0.00 0.00 49 813.3
20260504175235 7 76 33.8 46.7 0.00 0.00 0.00 48 813.4
20260504175125 7 70 38.6 49.9 0.00 0.00 0.00 49 813.0
20260504175015 7 74 35.4 46.7 0.00 0.00 0.00 49 813.3
20260504174905 7 81 30.6 45.1 0.00 0.00 0.00 48 813.4
20260504174645 7 70 35.4 46.7 0.00 0.00 0.00 49 813.3
20260504174535 7 73 35.4 43.5 0.00 0.00 0.00 49 813.4
20260504174425 7 78 32.2 40.2 0.00 0.00 0.00 49 813.4
20260504174315 7 73 30.6 40.2 0.00 0.00 0.00 49 813.3
20260504174205 7 78 29.0 35.4 0.00 0.00 0.00 49 813.5
20260504174055 7 90 32.2 43.5 0.00 0.00 0.00 48 813.4
20260504173947 7 67 30.6 40.2 0.00 0.00 0.00 48 813.4
20260504173727 7 79 30.6 40.2 0.00 0.00 0.00 48 813.4
20260504173615 7 80 30.6 40.2 0.00 0.00 0.00 48 813.4
20260504173506 7 74 30.6 37.0 0.00 0.00 0.00 48 813.4
20260504173355 7 70 37.0 46.7 0.00 0.00 0.00 48 813.3
20260504173245 7 62 30.6 38.6 0.00 0.00 0.00 48 813.3
20260504172805 7 67 38.6 54.7 0.00 0.00 0.00 48 813.1
20260504172655 7 68 33.8 45.1 0.00 0.00 0.00 48 813.3
20260504172545 7 83 30.6 43.5 0.00 0.00 0.00 48 813.3
20260504172435 7 68 38.6 49.9 0.00 0.00 0.00 48 813.3
20260504172329 7 72 29.0 38.6 0.00 0.00 0.00 48 813.3
20260504172214 7 63 37.0 48.3 0.00 0.00 0.00 48 813.1
20260504172105 7 81 35.4 48.3 0.00 0.00 0.00 48 813.1
20260504171958 7 79 30.6 48.3 0.00 0.00 0.00 48 813.4
20260504171846 7 69 24.1 33.8 0.00 0.00 0.00 49 813.4
20260504171735 7 67 27.4 38.6 0.00 0.00 0.00 48 813.3
20260504171628 7 73 30.6 43.5 0.00 0.00 0.00 48 813.3
20260504171515 7 62 32.2 48.3 0.00 0.00 0.00 48 813.3
20260504171405 7 79 30.6 45.1 0.00 0.00 0.00 47 813.4
20260504171145 7 71 41.8 54.7 0.00 0.00 0.00 46 813.3
20260504171035 7 72 40.2 53.1 0.00 0.00 0.00 47 813.1
20260504170925 7 69 37.0 56.3 0.00 0.00 0.00 48 813.3
20260504170815 7 71 30.6 41.8 0.00 0.00 0.00 48 813.0
20260504170445 7 85 29.0 38.6 0.00 0.00 0.00 48 813.4
20260504170226 7 100 32.2 45.1 0.00 0.00 0.00 49 813.3
20260504170114 7 91 27.4 37.0 0.00 0.00 0.00 48 813.4
20260504160404 7 49 40.2 49.9 0.00 0.00 0.00 49 813.0
20260504160255 7 51 38.6 49.9 0.00 0.00 0.00 48 813.0
20260504160144 7 62 40.2 48.3 0.00 0.00 0.00 49 813.1
20260504151135 7 33 32.2 49.9 0.00 0.00 0.00 55 813.3
20260504150914 7 15 30.6 49.9 0.00 0.00 0.00 59 813.1
20260504150804 7 29 30.6 45.1 0.00 0.00 0.00 58 813.1
20260504150654 7 14 32.2 46.7 0.00 0.00 0.00 59 813.1
20260504150544 7 30 29.0 56.3 0.00 0.00 0.00 60 813.1
20260504150434 7 34 29.0 40.2 0.00 0.00 0.00 60 813.3
20260504150324 7 35 37.0 48.3 0.00 0.00 0.00 59 813.0
20260504150214 7 48 32.2 49.9 0.00 0.00 0.00 59 813.3
20260504150104 7 37 24.1 35.4 0.00 0.00 0.00 60 813.3